EW6426 Weather Reports


Display with metric or nautical units.
time (UTC)temp
F
wind
direction
speed
MPH
gust
MPH
rain 1hr
in
rain 24hr
in
rain mn
in
humidity
%
barometer
mb
20190223144619 5 59 0.0 0.0 0.00 0.00 0.00 89 1017.8
20190223143041 5 10 0.0 0.0 0.00 0.00 0.00 88 1017.5
20190223141549 7 10 0.0 0.0 0.00 0.00 0.00 89 1017.4
20190223140046 7 23 0.0 0.0 0.00 0.00 0.00 89 1017.6
20190223134607 6 26 0.0 0.0 0.00 0.00 0.00 89 1017.3
20190223133100 8 25 0.0 1.0 0.00 0.00 0.00 89 1017.1
20190223131551 10 343 0.0 3.0 0.00 0.00 0.00 90 1016.9
20190223130035 10 347 0.0 1.0 0.00 0.00 0.00 90 1017.0
20190223124533 11 321 0.0 0.0 0.00 0.00 0.00 90 1017.3
20190223123030 11 327 0.0 1.0 0.00 0.00 0.00 90 1017.3
20190223121525 11 333 0.0 3.0 0.00 0.00 0.00 91 1017.5
20190223120040 11 315 0.0 2.0 0.00 0.00 0.00 90 1017.8
20190223114539 12 294 0.0 4.0 0.00 0.00 0.00 91 1018.1
20190223113035 13 294 0.0 0.0 0.00 0.00 0.00 91 1017.9
20190223111504 14 300 0.0 2.0 0.00 0.00 0.00 91 1017.8
20190223110003 14 311 0.0 4.0 0.00 0.00 0.00 91 1017.5
20190223104757 15 313 0.0 3.0 0.00 0.00 0.00 91 1018.0
20190223103128 15 301 0.0 3.0 0.00 0.00 0.00 91 1017.8
20190223101653 16 288 0.0 1.0 0.00 0.00 0.00 91 1018.3
20190223100209 16 288 0.0 1.0 0.00 0.00 0.00 92 1018.2
20190223094636 17 296 0.0 0.0 0.00 0.00 0.00 92 1018.2
20190223093119 17 294 0.0 1.0 0.00 0.00 0.00 92 1018.6
20190223091646 17 296 0.0 2.0 0.00 0.00 0.00 92 1018.6
20190223090109 16 292 0.0 1.0 0.00 0.00 0.00 92 1019.1
20190223084706 16 290 0.0 2.0 0.00 0.00 0.00 92 1019.6
20190223083135 15 290 0.0 0.0 0.00 0.00 0.00 91 1019.3
20190223081633 16 289 0.0 0.0 0.00 0.00 0.00 92 1019.4
20190223080153 16 288 0.0 2.0 0.00 0.00 0.00 91 1019.7
20190223074608 16 306 0.0 2.0 0.00 0.00 0.00 92 1020.1
20190223073115 16 309 0.0 0.0 0.00 0.00 0.00 92 1020.0
20190223071551 16 309 0.0 0.0 0.00 0.00 0.00 92 1019.6
20190223070150 16 310 0.0 0.0 0.00 0.00 0.00 92 1020.0
20190223064606 17 311 0.0 0.0 0.00 0.00 0.00 92 1019.6
20190223063143 17 314 0.0 3.0 0.00 0.00 0.00 92 1019.7
20190223061612 17 312 0.0 3.0 0.00 0.00 0.00 92 1020.1
20190223060056 17 290 0.0 2.0 0.00 0.00 0.00 92 1020.0
20190223054618 18 251 0.0 2.0 0.00 0.00 0.00 92 1020.1
20190223053037 18 198 0.0 3.0 0.00 0.00 0.00 92 1020.3
20190223051524 17 163 0.0 3.0 0.00 0.00 0.00 92 1020.3
20190223050016 17 163 0.0 2.0 0.00 0.00 0.00 92 1020.8
20190223044535 17 132 1.0 4.0 0.00 0.00 0.00 92 1021.1
20190223043008 16 133 1.0 7.0 0.00 0.00 0.00 92 1021.2
20190223041644 16 147 2.0 7.0 0.00 0.00 0.00 92 1021.5
20190223040213 16 134 3.0 9.0 0.00 0.00 0.00 91 1021.8
20190223034654 16 152 2.0 8.0 0.00 0.00 0.00 92 1021.8
20190223033131 16 144 3.0 8.0 0.00 0.00 0.00 92 1022.1
20190223031608 15 140 3.0 7.0 0.00 0.00 0.00 91 1022.2
20190223030127 15 128 2.0 8.0 0.00 0.00 0.00 91 1022.4
20190223024555 15 136 2.0 7.0 0.00 0.00 0.00 91 1022.5
20190223023141 15 145 3.0 11.0 0.00 0.00 0.00 91 1022.8
20190223021529 14 115 5.0 11.0 0.00 0.00 0.00 91 1022.8
20190223020029 14 142 4.0 12.0 0.00 0.00 0.00 91 1022.8
20190223014521 14 139 4.0 10.0 0.00 0.00 0.00 91 1022.9
20190223013034 14 142 7.0 14.0 0.00 0.00 0.00 91 1022.8
20190223011525 14 135 7.0 13.0 0.00 0.00 0.00 91 1022.6
20190223010005 14 130 4.0 11.0 0.00 0.00 0.00 91 1022.6
20190223004715 14 111 8.0 16.0 0.00 0.00 0.00 91 1022.6
20190223003202 13 134 8.0 14.0 0.00 0.00 0.00 91 1022.3
20190223001657 13 144 9.0 16.0 0.00 0.00 0.00 91 1022.8
20190223000117 13 142 8.0 18.0 0.00 0.00 0.00 91 1023.0
20190222234823 14 131 6.0 18.0 0.00 0.00 0.00 91 1023.1
20190222233125 14 148 9.0 19.0 0.00 0.00 0.00 91 1023.3
20190222231636 15 158 11.0 16.0 0.00 0.00 0.00 91 1023.8
20190222230030 15 117 10.0 17.0 0.00 0.00 0.00 91 1024.1
20190222224621 14 135 7.0 14.0 0.00 0.00 0.00 91 1024.3
20190222223051 14 147 5.0 12.0 0.00 0.00 0.00 91 1024.4
20190222221538 14 95 6.0 13.0 0.00 0.00 0.00 91 1024.6
20190222220013 13 115 6.0 12.0 0.00 0.00 0.00 90 1024.8
20190222214527 13 101 5.0 11.0 0.00 0.00 0.00 90 1025.0
20190222213007 13 101 4.0 10.0 0.00 0.00 0.00 90 1025.2
20190222211658 13 121 5.0 10.0 0.00 0.00 0.00 90 1025.5
20190222210143 13 113 6.0 11.0 0.00 0.00 0.00 90 1025.6
20190222204627 13 148 3.0 12.0 0.00 0.00 0.00 90 1025.8
20190222203120 13 131 4.0 9.0 0.00 0.00 0.00 90 1026.0
20190222201617 13 109 4.0 10.0 0.00 0.00 0.00 90 1026.4
20190222200134 13 92 3.0 11.0 0.00 0.00 0.00 90 1026.8
20190222194618 13 122 5.0 12.0 0.00 0.00 0.00 90 1027.1
20190222193111 13 130 3.0 10.0 0.00 0.00 0.00 91 1027.3
20190222191603 13 138 3.0 10.0 0.00 0.00 0.00 90 1027.6
20190222190045 13 148 5.0 11.0 0.00 0.00 0.00 90 1027.8
20190222184522 12 158 4.0 9.0 0.00 0.00 0.00 90 1027.8
20190222183034 12 137 6.0 11.0 0.00 0.00 0.00 90 1028.1
20190222181516 13 158 7.0 10.0 0.00 0.00 0.00 90 1028.3
20190222180003 12 152 3.0 10.0 0.00 0.00 0.00 90 1028.5
20190222174723 12 145 5.0 10.0 0.00 0.00 0.00 90 1028.5
20190222173222 11 114 3.0 11.0 0.00 0.00 0.00 90 1028.4
20190222171648 10 158 3.0 7.0 0.00 0.00 0.00 90 1028.9
20190222170141 10 157 3.0 8.0 0.00 0.00 0.00 89 1029.1
20190222164705 9 153 3.0 7.0 0.00 0.00 0.00 89 1029.5
20190222163118 9 128 0.0 5.0 0.00 0.00 0.00 89 1029.5
20190222161606 8 150 0.0 7.0 0.00 0.00 0.00 89 1029.7
20190222160049 9 149 1.0 5.0 0.00 0.00 0.00 89 1029.9
20190222154602 10 119 0.0 2.0 0.00 0.00 0.00 90 1029.8
20190222153043 9 125 0.0 2.0 0.00 0.00 0.00 89 1029.6
20190222151535 11 117 0.0 3.0 0.00 0.00 0.00 89 1029.7
20190222150016 7 101 0.0 2.0 0.00 0.00 0.00 89 1029.8